Location: Baumgarten
(49.0970°N, 12.7493°E)
Time: 19:03:04
(UTC+00:00)

Lacrosse 5 rocket - Pass Details

Date: 05 July 2020
Orbit: 465 x 632 km, 57.0° (Epoch: 11 August)

Event Time Altitude Azimuth Distance (km) Brightness Sun altitude
Rises 22:54:54 0° 303° (WNW) 2,728 5.4 -18.1°
Reaches altitude 10° 22:57:16 10° 310° (NW) 1,801 4.5 -18.1°
Maximum altitude 23:01:09 43° 23° (NNE) 741 2.4 -18.2°
Drops below altitude 10° 23:04:49 10° 96° (E) 1,703 3.7 -18.2°
Enters shadow 23:06:16 - 102° (ESE) 2,265 4.3 -18.2°
